Nashua, NH

12:29 AM EST on November 15, 2019 (GMT -0500)
Boire

Weather History for KASH - May, 2019

Change the Weather History Date:

Sunday, May 19, 2019

  Actual Average Record
Temperature  
Mean Temperature 65 °F -  
Max Temperature 78 °F 68 °F 96 °F (1962)
Min Temperature 53 °F 44 °F 29 °F (1951)
Growing Degree Days 15 (Base 50)    
Moisture  
Dew Point 55 °F    
Average Humidity 78    
Maximum Humidity 97    
Minimum Humidity 56    
Precipitation  
Precipitation 0.31 in - - ()
Sea Level Pressure  
Sea Level Pressure 30.04 in    
Wind  
Wind Speed 3 mph ()    
Max Wind Speed 9 mph    
Max Gust Speed 24 mph    
Visibility 9.8 miles    
Events Rain    
Averages and records for this station are not official NWS values.
T = Trace of Precipitation, MM = Missing Value Source: Averaged Metar Reports

Daily Weather History Graph

Daily Weather History Graph

Search for Another Location

Airport or City:

Astronomy

May. 19, 2019 Rise Set
Actual Time 5:19 AM EDT 8:05 PM EDT
Civil Twilight 4:46 AM EDT 8:38 PM EDT
Nautical Twilight 4:05 AM EDT 9:20 PM EDT
Astronomical Twilight 3:17 AM EDT 10:08 PM EDT
Moon 9:02 PM EDT (5/19) 6:04 AM EDT (5/19)
Length of Visible Light 15h 51m
Length of Day
14h 46m
Full, 99% of the Moon is Illuminated
May 19
Full
May 26
Last Quarter
Jun 3
New
Jun 10
First Quarter
Jun 17
Full

Hourly Weather History & Observations

Time (EDT) Temp. Dew Point Humidity Pressure Visibility Wind Dir Wind Speed Gust Speed Precip Events Conditions
12:56 AM 57.0 °F 45.0 °F 64% 30.11 in 10.0 mi East 3.5 mph - N/A   Overcast
1:56 AM 54.0 °F 46.0 °F 75% 30.11 in 10.0 mi Calm Calm - N/A   Overcast
2:56 AM 53.1 °F 46.0 °F 77% 30.12 in 10.0 mi Calm Calm - N/A   Mostly Cloudy
3:56 AM 54.0 °F 46.9 °F 77% 30.12 in 10.0 mi Calm Calm - N/A   Overcast
4:56 AM 53.1 °F 48.0 °F 83% 30.12 in 10.0 mi Calm Calm - N/A   Overcast
5:56 AM 53.1 °F 48.0 °F 83% 30.11 in 10.0 mi SE 4.6 mph - N/A   Mostly Cloudy
6:56 AM 53.1 °F 48.9 °F 86% 30.12 in 10.0 mi South 3.5 mph - N/A   Partly Cloudy
7:56 AM 55.9 °F 50.0 °F 80% 30.12 in 10.0 mi Variable 3.5 mph - N/A   Clear
8:56 AM 57.0 °F 50.0 °F 77% 30.12 in 10.0 mi Variable 3.5 mph - N/A   Overcast
9:56 AM 57.9 °F 53.1 °F 84% 30.12 in 10.0 mi Calm Calm - 0.00 in Rain Light Rain
10:56 AM 55.9 °F 55.0 °F 97% 30.10 in 6.0 mi Calm Calm - 0.31 in Rain Light Rain
11:56 AM 59.0 °F 57.9 °F 96% 30.09 in 10.0 mi Variable 3.5 mph - 0.00 in   Overcast
12:56 PM 61.0 °F 55.0 °F 81% 30.08 in 10.0 mi South 9.2 mph 24.2 mph N/A   Mostly Cloudy
1:56 PM 64.0 °F 55.0 °F 73% 30.06 in 10.0 mi South 8.1 mph 16.1 mph N/A   Scattered Clouds
2:56 PM 70.0 °F 57.9 °F 65% 30.03 in 10.0 mi South 5.8 mph 13.8 mph N/A   Clear
3:56 PM 73.0 °F 57.9 °F 59% 29.99 in 10.0 mi Variable 5.8 mph - N/A   Clear
4:56 PM 77.0 °F 60.1 °F 56% 29.94 in 10.0 mi South 4.6 mph 18.4 mph N/A   Clear
5:56 PM 77.0 °F 60.1 °F 56% 29.93 in 10.0 mi SSW 4.6 mph 23.0 mph N/A   Clear
6:56 PM 75.0 °F 62.1 °F 64% 29.93 in 10.0 mi SSW 6.9 mph 17.3 mph N/A   Partly Cloudy
7:56 PM 72.0 °F 63.0 °F 73% 29.94 in 10.0 mi South 8.1 mph 16.1 mph N/A   Mostly Cloudy
8:19 PM 71.6 °F 64.4 °F 78% 29.90 in 10.0 mi Variable 5.8 mph - N/A   Overcast
8:56 PM 69.1 °F 63.0 °F 81% 29.94 in 10.0 mi Variable 5.8 mph - N/A   Overcast
9:56 PM 68.0 °F 64.0 °F 87% 29.94 in 10.0 mi Variable 5.8 mph - N/A   Overcast
10:56 PM 66.9 °F 64.9 °F 93% 29.94 in 10.0 mi Variable 3.5 mph - N/A   Overcast
11:56 PM 66.9 °F 64.9 °F 93% 29.92 in 10.0 mi SE 4.6 mph - N/A   Overcast